GSE Systems Debt to Equity Ratio 2006-2019 | GVP

Current and historical debt to equity ratio values for GSE Systems (GVP) over the last 10 years. The debt/equity ratio can be defined as a measure of a company's financial leverage calculated by dividing its long-term debt by stockholders' equity. GSE Systems debt/equity for the three months ending June 30, 2019 was 0.71.
GSE Systems Debt/Equity Ratio Historical Data
Date Long Term Debt Shareholder's Equity Debt to Equity Ratio
2019-06-30 $0.02B $0.03B 0.71
2019-03-31 $0.02B $0.03B 0.77
2018-12-31 $0.01B $0.03B 0.21
2018-09-30 $0.01B $0.03B 0.24
2018-06-30 $0.01B $0.03B 0.25
2018-03-31 $0.00B $0.03B 0.00
2017-12-31 $0.00B $0.03B 0.00
2017-09-30 $0.00B $0.02B 0.00
2017-06-30 $0.00B $0.02B 0.00
2017-03-31 $0.00B $0.02B 0.00
2016-12-31 $0.00B $0.02B 0.00
2016-09-30 $0.00B $0.02B 0.00
2016-06-30 $0.00B $0.02B 0.00
2016-03-31 $0.00B $0.02B 0.00
2015-12-31 $0.00B $0.02B 0.00
2015-09-30 $0.00B $0.02B 0.00
2015-06-30 $0.00B $0.02B 0.00
2015-03-31 $0.00B $0.02B 0.00
2014-12-31 $0.00B $0.02B 0.00
2014-09-30 $0.00B $0.03B 0.00
2014-06-30 $0.00B $0.03B 0.00
2014-03-31 $0.00B $0.03B 0.00
2013-12-31 $0.00B $0.03B 0.00
2013-09-30 $0.00B $0.03B 0.00
2013-06-30 $0.00B $0.03B 0.00
2013-03-31 $0.00B $0.04B 0.00
2012-12-31 $0.00B $0.04B 0.00
2012-09-30 $0.00B $0.04B 0.00
2012-06-30 $0.00B $0.04B 0.00
2012-03-31 $0.00B $0.04B 0.00
2011-12-31 $0.00B $0.04B 0.00
2011-09-30 $0.00B $0.04B 0.00
2011-06-30 $0.00B $0.04B 0.00
2011-03-31 $0.00B $0.04B 0.00
2010-12-31 $0.00B $0.04B 0.00
2010-09-30 $0.00B $0.04B 0.00
2010-06-30 $0.00B $0.04B 0.00
2010-03-31 $0.00B $0.04B 0.00
2009-12-31 $0.00B $0.04B 0.00
2009-09-30 $0.00B $0.04B 0.00
2009-06-30 $0.00B $0.02B 0.00
2009-03-31 $0.00B $0.02B 0.00
2008-12-31 $0.00B $0.02B 0.00
2008-09-30 $0.00B $0.02B 0.00
2008-06-30 $0.00B $0.02B 0.00
2008-03-31 $0.00B $0.02B 0.00
2007-12-31 $0.00B $0.02B 0.00
2007-09-30 $0.00B $0.02B 0.00
2007-06-30 $0.00B $0.02B 0.00
2007-03-31 $0.00B $0.01B 0.00
2006-12-31 $0.00B $0.01B 0.00
2006-09-30 $0.00B $0.01B 0.00
2006-06-30 $0.00B $0.01B 0.00
2006-03-31 $0.00B $0.01B 0.08
2005-12-31 $0.00B $0.00B 0.97
2005-09-30 $0.00B $0.00B 0.26
2005-06-30 $0.00B $0.00B 0.17
2005-03-31 $0.00B $0.01B 0.00
Sector Industry Market Cap Revenue
Computer and Technology Computer Software $0.025B $0.092B
GSE Systems, Inc. develops and delivers business and technology solutions by applying process control and simulation software, systems and services to the pharmaceutical and chemical research & development, energy, process and manufacturing industries worldwide. The company's products are used in the following industries: specialty chemical, food and beverage, petroleum refining, pharmaceutical, fossil and nuclear power generation, metals and water treatment. (PRESS RELEASE)
Stock Name Country Market Cap PE Ratio
Microsoft (MSFT) United States $1000.000B 29.47
Oracle (ORCL) United States $185.758B 17.15
SAP SE (SAP) Germany $161.578B 30.28
Salesforce, Inc (CRM) United States $142.828B 111.55
Adobe (ADBE) United States $141.215B 47.82
VMware (VMW) United States $68.638B 34.14
Intuit (INTU) United States $67.614B 46.84
Dassault Systemes SA (DASTY) France $39.526B 44.05
Autodesk (ADSK) United States $34.708B 232.44
Synopsys (SNPS) United States $20.873B 33.96
ANSYS (ANSS) United States $19.381B 42.79
Cadence Design Systems (CDNS) United States $18.962B 44.46
Symantec (NLOK) United States $15.077B 21.23
SS&C Technologies Holdings (SSNC) United States $14.698B 16.71
Citrix Systems (CTXS) United States $14.510B 26.66
Open Text (OTEX) Canada $11.533B 35.54
PTC (PTC) United States $8.439B 56.36
Aspen Technology (AZPN) United States $8.122B 30.38
Trend Micro (TMICY) Japan $7.283B 27.16
Konami (KNMCY) Japan $5.802B 19.15
Pegasystems (PEGA) United States $5.785B 0.00
Manhattan Associates (MANH) United States $4.856B 52.05
Nuance Communications (NUAN) United States $4.685B 17.63
Blackbaud (BLKB) United States $3.970B 55.28
ACI Worldwide (ACIW) United States $3.903B 36.30
Cornerstone OnDemand (CSOD) United States $3.519B 362.44
Descartes Systems Group (DSGX) Canada $3.355B 102.23
Verint Systems (VRNT) United States $3.234B 19.07
CommVault Systems (CVLT) United States $2.271B 88.73
PROS Holdings (PRO) United States $2.200B 0.00
Bottomline Technologies (EPAY) United States $2.062B 90.21
Progress Software (PRGS) United States $1.872B 18.57
MicroStrategy (MSTR) United States $1.623B 478.97
Sapiens (SPNS) Israel $1.100B 31.85
QAD (QADB) United States $0.743B 173.81
Simulations Plus (SLP) United States $0.585B 75.86
American Software (AMSWA) United States $0.522B 59.46
Magic Software Enterprises (MGIC) Israel $0.444B 16.82
Rosetta Stone (RST) United States $0.354B 0.00
Avid Technology (AVID) United States $0.331B 17.86
Smith Micro Software (SMSI) United States $0.188B 16.83
GlobalSCAPE (GSB) United States $0.176B 14.34
OptimizeRx (OPRX) United States $0.142B 0.00
Icad Inc (ICAD) United States $0.134B 0.00
ServiceSource (SREV) United States $0.116B 0.00
Park City (PCYG) United States $0.108B 39.07
NetSol Technologies (NTWK) United States $0.055B 7.28
BSQUARE (BSQR) United States $0.017B 0.00
Neonode (NEON) Sweden $0.013B 0.00
CounterPath (CPAH) Canada $0.007B 0.00